Temp
27 27 26 26 27 28 28 28 28 28 27 27 26 24 23 23 23 23 23 23 23 24 23 23 23 23 23 22 22 22 21 21 22 23 23 24 25 24 24 24 24 24 24 23 24 24 24 24 24 23 23 22 22 21 21 21 20 20 20 20 20 20 20 20 19 19 19 19 19 19 20 20 21 21 21 22 22 22 23 23 23 23 23 23 23 23
27 26 26 28 28 28 27 27 27 27 27 27 26 24 24 23 23 23 23 23 23 23 23 23 23 23 23 22 22 22 22 21 22 23 23 23 24 24 24 24 24 23 23 23 24 24 24 24 24 23 23 22 22 21 21 21 21 20 20 20 20 20 20 20 20 20 20 20 20 20 20 21 21 21 22 22 22 23 23 23 23 23 23 23 23 23
26 26 28 28 27 26 26 26 26 27 27 27 25 25 24 23 24 23 23 24 23 23 24 23 23 24 23 22 23 23 22 22 22 22 23 23 23 23 23 23 23 23 22 23 23 23 24 24 23 23 23 22 22 22 21 21 21 20 20 20 20 20 20 20 20 20 20 21 21 21 21 21 21 22 22 22 22 23 23 23 23 23 23 23 23 23
24 27 29 28 26 26 26 26 27 27 27 27 25 24 23 23 23 23 23 24 24 23 24 24 24 24 24 23 23 23 22 22 22 22 23 23 23 23 23 23 23 23 23 23 23 23 23 23 23 23 23 22 22 22 21 21 21 21 21 21 21 21 21 21 20 21 21 21 21 21 22 22 22 22 22 22 22 23 23 23 23 23 23 23 23 23
26 28 28 27 26 27 27 27 27 27 26 27 26 25 25 25 24 23 23 24 24 23 24 24 23 23 24 24 23 23 23 23 22 22 23 23 23 23 23 23 23 23 23 23 23 23 23 23 23 23 23 23 22 22 22 21 21 21 21 21 21 22 21 21 21 21 21 21 21 21 21 21 21 22 22 22 22 22 23 23 23 23 23 23 23 23
28 28 26 27 27 27 28 28 27 27 25 25 27 27 26 26 25 24 24 24 23 22 24 24 21 22 24 24 23 23 23 23 23 23 23 23 24 24 23 23 23 23 23 23 23 23 24 23 23 23 23 23 22 22 22 22 21 21 21 22 22 22 22 21 21 21 21 21 21 21 21 21 21 21 21 22 22 23 23 23 23 23 23 23 23 24
28 28 27 28 27 27 27 28 27 27 25 24 27 28 26 26 25 24 24 23 22 21 23 23 22 21 22 24 24 24 24 24 23 23 24 24 24 24 23 23 23 23 23 24 24 24 24 23 23 23 23 23 22 22 22 22 21 21 22 22 22 22 22 22 22 21 21 21 21 21 21 21 21 22 22 23 23 23 23 23 23 23 23 23 23 24
28 29 28 28 29 28 27 28 28 27 25 24 26 27 25 25 24 23 24 23 22 22 22 23 23 21 21 23 24 24 24 24 24 24 24 24 24 24 24 23 23 23 23 24 24 24 24 23 23 23 23 23 23 22 22 22 22 21 22 22 23 23 23 22 22 22 22 22 22 22 22 22 22 22 23 23 23 23 23 23 23 23 23 23 24 24
28 30 30 29 29 28 29 30 28 27 27 25 25 25 25 25 24 24 24 23 22 22 21 22 22 21 21 22 23 23 23 24 24 24 24 23 23 24 24 24 24 24 24 24 24 24 24 24 24 23 23 23 23 23 22 22 22 22 22 22 23 23 23 23 22 22 22 22 22 22 22 23 23 23 23 23 23 23 23 23 23 23 23 24 24 24
28 29 29 29 29 29 30 30 27 27 27 25 25 25 25 25 24 25 24 23 22 22 21 22 22 21 21 22 22 23 23 24 25 25 25 24 23 24 24 24 24 24 24 24 24 25 24 24 24 24 24 23 23 23 23 23 22 22 22 22 22 23 23 23 23 23 22 22 22 22 23 23 23 23 23 23 23 23 23 23 23 23 23 23 24 24
28 28 28 29 29 29 30 28 26 27 26 25 25 25 25 25 25 25 24 23 22 21 21 21 22 22 21 22 22 23 24 25 25 25 25 24 24 24 24 24 24 24 24 25 25 25 24 24 24 24 24 23 23 23 23 22 22 22 22 22 22 23 23 23 23 23 23 22 22 22 23 23 23 23 23 23 23 24 24 23 23 23 23 23 24 24
29 29 28 29 29 29 30 29 26 26 25 26 27 25 24 24 24 23 23 22 21 21 22 21 21 22 21 22 23 24 25 25 25 26 25 25 24 24 24 24 24 24 24 25 25 25 24 24 24 24 24 23 23 23 23 23 22 22 22 22 22 22 23 23 23 23 23 23 22 22 22 23 23 23 23 23 24 24 24 24 24 23 23 23 23 24
29 29 28 28 28 29 30 29 26 26 26 26 26 24 22 21 21 22 21 21 21 21 21 21 22 22 21 23 25 25 26 25 25 26 26 26 25 24 24 24 24 24 24 25 25 25 24 24 24 24 23 23 23 23 23 23 22 22 22 22 22 22 23 23 23 23 23 23 23 23 23 23 23 24 24 24 24 24 24 24 24 24 23 23 23 24
26 28 28 28 29 29 29 29 26 26 27 26 25 23 22 21 21 21 20 21 21 21 21 21 22 21 21 24 25 25 25 25 24 24 25 26 26 25 25 25 25 24 25 25 25 25 25 24 24 24 24 23 23 23 23 23 23 22 22 22 22 23 23 23 23 23 23 23 23 23 23 23 23 24 24 24 24 25 25 24 24 24 24 24 24 24
23 24 27 28 28 28 29 29 28 28 28 26 26 25 23 22 21 21 21 21 21 21 21 21 22 21 22 24 25 24 25 24 23 23 25 26 26 26 25 25 25 25 25 25 25 25 25 24 24 24 24 23 23 23 23 23 23 22 22 22 22 23 23 23 23 23 23 23 23 23 23 24 24 24 24 24 25 25 25 25 24 24 24 24 24 24
22 22 27 28 27 27 28 28 28 29 27 25 26 26 24 24 23 22 21 21 21 21 21 21 21 22 23 25 25 24 24 24 23 23 24 25 25 25 25 25 24 25 25 25 25 25 25 24 24 24 24 24 24 23 23 23 23 22 22 22 23 23 23 23 23 23 24 24 24 24 24 24 24 24 24 24 25 25 25 25 25 24 24 24 24 24
22 23 28 29 27 28 27 27 28 27 26 26 25 24 24 25 26 22 20 21 21 21 21 21 21 23 24 25 25 24 25 24 23 22 23 24 24 25 25 25 24 25 25 25 25 25 25 24 24 24 24 24 24 23 23 23 23 23 23 22 23 23 23 23 23 23 24 24 24 24 24 24 24 24 24 24 25 25 25 25 25 25 25 24 24 24
23 23 27 28 28 28 26 26 28 27 27 27 24 24 25 25 25 24 21 21 21 21 22 21 21 22 22 23 25 25 25 24 23 22 22 23 24 24 24 24 24 25 25 25 25 25 25 25 24 24 24 24 24 24 24 23 23 23 23 23 23 23 23 23 23 24 24 24 24 24 24 24 24 24 24 24 25 25 25 25 25 25 25 25 25 24
24 23 25 27 27 28 27 27 28 27 28 27 25 26 25 23 23 23 22 21 21 21 21 21 21 21 21 22 24 24 24 23 22 22 22 22 23 24 24 24 24 24 25 25 25 25 25 25 25 25 25 25 24 24 24 24 23 23 23 23 23 23 24 24 24 24 24 24 24 24 24 24 24 24 24 24 25 25 25 25 25 25 25 25 25 24
25 23 24 27 27 26 27 27 25 25 27 27 26 27 26 24 23 22 22 22 21 21 21 21 21 21 21 23 24 24 23 22 22 21 22 22 22 23 23 24 24 24 24 24 24 25 25 25 25 25 25 25 25 24 24 24 23 23 23 23 23 23 23 23 23 24 23 24 24 24 24 24 24 24 24 24 24 25 25 25 25 25 25 25 25 25
26 24 22 26 27 25 25 25 24 24 26 26 25 25 24 24 23 22 22 22 21 21 21 21 21 22 23 24 24 24 23 22 21 21 21 21 21 22 22 22 23 24 24 24 24 25 25 25 25 25 25 25 25 25 24 24 24 23 23 23 23 23 23 23 23 23 23 23 23 23 24 24 24 24 24 24 24 24 25 25 25 25 25 25 25 25
26 25 22 23 24 23 24 25 24 24 25 25 25 24 23 23 22 22 22 21 22 21 21 21 21 22 24 24 23 23 22 21 21 21 21 21 21 21 21 21 22 23 23 23 24 25 25 24 25 25 25 25 25 25 24 24 24 23 23 23 23 23 23 23 23 23 23 23 23 23 24 24 24 24 24 24 24 24 25 25 25 25 25 25 25 25
26 26 23 22 22 23 24 24 23 23 25 25 25 24 24 23 22 22 21 21 21 21 21 21 21 22 23 22 22 23 21 21 21 21 21 21 21 21 21 21 21 22 23 23 23 24 23 22 23 24 24 24 24 24 24 24 24 24 24 23 23 23 23 23 23 23 23 23 23 23 23 23 24 24 24 24 24 24 25 24 24 24 25 25 25 25
26 25 23 22 23 24 24 25 25 25 25 25 25 24 24 23 23 22 22 22 21 21 21 21 20 22 23 21 21 21 21 21 20 20 21 21 20 20 20 20 20 21 22 22 23 23 21 20 21 22 23 23 22 22 23 23 24 24 24 23 23 23 23 23 23 23 23 23 23 23 23 23 23 24 24 24 24 24 24 24 24 24 24 25 24 24
26 24 23 21 22 22 23 24 24 25 25 24 24 24 24 24 23 23 22 22 21 21 21 21 21 22 22 21 20 20 20 20 20 20 20 20 20 20 20 20 20 20 21 22 22 23 22 22 22 21 22 22 22 22 22 23 23 24 24 24 23 23 23 23 23 23 23 23 23 23 23 23 23 23 23 24 24 24 24 24 24 24 24 24 24 24
26 24 23 22 21 21 21 21 22 23 24 23 23 24 24 23 23 23 22 21 21 21 21 21 22 22 22 21 20 20 20 20 20 20 20 20 20 20 20 20 19 20 21 21 21 22 23 23 22 21 21 22 22 22 23 23 23 23 24 24 24 23 23 23 23 23 23 23 23 23 23 23 23 23 23 23 24 24 24 24 24 24 24 24 24 24
26 24 24 24 22 22 23 23 23 23 23 22 23 24 24 23 23 23 21 21 21 21 21 22 22 22 23 22 20 20 20 20 21 21 21 20 20 20 20 20 20 20 20 20 21 21 21 22 22 21 21 21 22 22 23 23 24 23 23 24 24 23 23 23 23 23 23 22 22 22 23 23 23 23 23 23 23 24 24 24 24 24 24 24 24 24
26 24 24 25 25 25 25 25 24 24 24 24 23 24 24 23 23 22 21 21 22 21 21 22 22 21 23 23 21 20 21 21 21 21 21 21 20 20 20 20 20 20 20 19 20 20 20 21 21 21 21 21 21 22 22 23 24 24 24 24 23 23 23 23 23 23 22 22 22 22 23 23 23 23 23 23 23 23 24 24 24 24 24 24 24 24
28 25 23 24 25 26 25 24 23 24 24 24 24 24 24 23 23 23 22 22 22 21 22 22 22 22 24 23 21 20 21 21 21 21 20 20 20 20 20 20 20 20 19 19 20 20 20 20 21 21 21 21 21 21 21 22 23 23 23 23 23 23 23 23 23 23 22 22 22 22 23 23 23 23 23 23 23 23 23 24 24 24 24 24 24 24
27 25 23 23 25 25 24 22 23 24 24 23 24 24 24 23 23 23 23 23 22 22 23 23 21 22 23 22 21 20 20 20 21 21 20 20 20 20 20 20 20 19 19 20 20 20 20 20 20 20 20 20 20 21 21 22 22 23 23 23 23 23 23 23 22 22 22 22 22 22 22 22 22 23 23 23 23 23 23 24 24 24 24 24 24 24
25 24 24 24 23 24 24 22 22 23 23 23 24 24 23 23 23 22 23 23 22 22 23 22 21 23 23 21 20 20 20 20 20 20 20 19 19 20 20 20 20 20 20 19 19 19 19 20 20 20 20 20 20 20 21 21 22 22 23 23 23 23 23 23 23 22 22 22 22 22 22 22 22 22 22 23 23 23 23 23 23 24 24 24 24 24
26 24 23 24 22 22 23 22 22 23 23 23 23 24 24 23 23 23 22 22 22 23 22 21 22 23 22 19 19 20 19 20 20 20 20 19 19 20 20 20 20 19 19 19 19 19 19 19 19 19 20 20 20 20 21 21 21 22 22 23 23 23 23 23 23 22 22 21 22 22 23 22 22 22 22 22 23 23 23 23 23 23 23 24 24 24
27 25 23 23 22 21 22 22 23 23 22 22 23 24 24 24 23 23 23 22 22 23 23 22 23 22 20 19 19 19 19 19 19 19 19 19 19 19 19 19 19 19 19 19 19 19 19 19 19 19 19 20 20 20 21 21 21 21 22 23 23 23 22 22 22 22 22 21 21 21 22 22 22 22 22 22 23 23 23 23 23 23 23 23 24 24
25 26 24 23 22 21 21 22 22 22 21 22 22 21 22 24 24 24 24 23 23 22 22 22 21 20 19 19 19 19 19 19 19 19 19 19 19 19 19 19 19 19 19 19 19 19 19 19 19 19 19 20 20 20 20 21 21 21 22 22 22 22 22 22 22 21 22 22 21 21 22 22 22 22 22 22 22 22 23 23 23 23 23 23 24 24
24 25 24 22 22 21 21 22 21 20 21 23 22 20 21 22 23 24 24 24 22 22 21 22 21 19 19 19 19 18 19 19 19 20 20 20 20 19 19 20 19 19 19 19 19 19 19 19 19 19 19 19 20 20 20 20 20 21 21 21 21 21 21 22 22 22 22 22 22 21 22 22 22 22 22 22 22 22 23 23 23 23 23 23 23 23
26 25 23 22 22 21 21 21 21 21 23 23 22 22 22 22 22 23 23 24 24 22 22 22 22 19 18 18 18 18 19 19 20 20 20 20 20 20 19 19 19 19 19 19 19 19 19 19 19 19 19 19 19 19 20 20 20 20 21 21 21 21 21 22 22 22 22 22 22 22 22 22 22 21 22 22 23 22 22 23 23 23 23 23 23 23
25 25 25 23 21 21 21 21 21 22 22 23 24 23 23 23 24 23 23 24 24 22 22 23 21 18 18 19 19 19 19 20 20 20 20 20 19 19 19 19 19 19 19 19 19 18 18 19 19 19 19 19 19 19 19 20 20 21 21 21 21 21 21 21 22 22 21 21 21 22 22 22 22 21 22 23 23 23 23 23 23 23 23 23 23 23
24 25 25 23 21 21 21 21 21 21 21 23 24 23 23 23 24 23 23 24 24 22 21 22 21 19 18 19 19 19 20 20 20 20 20 20 19 19 19 19 19 19 19 19 18 18 19 19 19 19 18 18 19 19 19 20 20 20 20 20 20 21 20 21 21 21 21 21 21 21 21 22 22 22 22 22 23 23 23 23 23 23 23 22 22 22
24 24 25 23 21 21 21 21 21 21 22 23 24 23 23 22 22 23 22 23 24 21 20 22 21 19 18 19 19 19 20 20 21 20 20 19 19 19 19 19 19 19 19 19 18 18 19 18 18 19 19 18 19 19 19 19 20 20 20 19 20 20 20 20 21 21 21 21 21 21 21 22 22 22 22 22 22 23 23 23 23 23 23 22 22 21
24 24 24 23 21 21 21 21 21 21 23 23 24 23 22 21 22 22 21 22 23 21 19 21 22 19 19 19 19 19 20 21 21 20 19 19 19 18 18 18 18 18 18 19 18 18 19 18 18 19 19 18 18 18 19 19 19 19 19 19 19 20 20 20 21 21 21 21 21 21 21 21 21 22 22 22 22 23 23 22 22 22 22 21 21 21
24 23 22 22 21 21 21 21 21 22 23 23 23 23 22 22 22 22 22 22 22 20 19 21 22 20 18 19 19 19 20 20 19 18 18 19 18 18 18 18 18 18 18 18 18 18 18 18 18 19 19 19 19 18 18 18 18 18 19 19 19 19 19 20 20 20 20 20 20 20 21 21 21 21 22 22 22 22 22 21 21 21 21 21 21 21
23 22 21 21 21 21 21 21 21 22 23 23 23 22 22 22 22 22 22 20 20 20 20 20 21 20 18 18 19 18 19 19 18 18 18 18 18 18 18 18 18 18 18 18 18 18 18 18 18 18 18 19 19 19 19 19 18 18 19 19 19 19 19 19 19 19 19 19 20 20 20 20 20 21 21 21 21 21 21 20 20 20 20 20 20 21
23 23 21 21 21 20 20 21 21 22 23 23 23 23 23 23 23 22 21 19 18 20 20 20 20 19 18 18 18 18 19 18 18 18 18 18 18 18 18 18 18 18 18 18 18 18 18 18 17 18 18 18 19 19 19 19 19 19 19 18 18 19 19 20 20 19 19 19 19 19 19 20 20 20 20 20 20 20 20 19 19 19 19 19 20 21
24 23 22 22 22 21 21 21 22 23 22 22 23 24 23 22 21 21 21 20 19 19 20 20 20 18 18 19 18 18 18 18 18 18 18 18 18 18 18 18 18 18 18 18 18 18 18 17 17 17 18 18 19 19 19 19 19 18 18 18 19 19 19 19 19 19 19 19 19 19 19 19 19 19 19 19 19 19 19 19 19 19 19 19 19 20
24 24 24 24 23 22 23 23 23 22 21 20 21 22 21 20 19 19 21 22 20 19 20 21 20 18 18 18 18 18 18 18 18 18 18 18 18 18 18 18 17 18 18 18 18 18 17 17 17 17 17 18 19 19 19 19 19 18 18 18 18 19 19 18 19 19 18 18 18 18 18 19 19 18 18 18 18 18 19 19 18 18 18 18 18 19
22 21 23 25 23 22 22 22 21 21 21 20 20 19 19 20 19 20 21 22 21 19 20 20 19 18 17 18 18 18 18 18 18 18 18 18 18 18 18 17 17 18 18 17 17 17 17 17 17 17 17 17 18 18 19 19 18 18 18 18 19 19 19 19 18 18 18 18 18 18 18 18 18 18 18 18 18 18 18 18 18 18 18 18 18 18
21 21 23 24 23 23 23 22 21 22 22 21 20 19 19 19 19 19 21 22 20 19 19 19 18 18 17 18 18 18 18 18 18 18 18 18 18 18 18 17 17 18 17 17 17 17 17 17 16 16 16 16 17 17 17 18 18 17 18 18 19 19 19 19 18 18 17 17 17 17 17 17 17 18 17 17 17 17 17 17 18 18 18 18 18 17
22 22 23 23 22 23 24 22 21 21 20 20 21 21 20 20 20 19 20 20 19 18 18 18 17 18 18 18 18 18 18 18 18 18 18 18 18 18 18 17 18 18 17 17 17 17 17 16 16 16 16 16 16 17 17 17 17 17 17 18 18 18 19 18 17 17 17 17 17 17 17 17 17 17 17 16 16 17 17 17 17 17 17 17 17 17
22 23 23 22 22 23 23 22 21 21 22 22 22 21 20 20 20 19 19 18 18 18 18 17 17 18 18 18 18 18 18 18 18 18 18 18 18 18 18 17 18 18 18 18 17 17 17 16 16 16 16 16 16 16 17 17 17 17 17 18 18 18 18 17 17 16 16 16 16 16 16 16 16 16 16 16 17 17 16 16 17 17 16 16 17 17
23 23 21 21 23 24 24 24 22 23 25 24 23 22 21 19 19 19 19 18 18 18 18 18 18 17 17 17 17 18 18 18 17 18 18 18 17 17 17 17 17 18 18 18 18 18 17 17 17 16 16 16 16 16 16 17 17 16 17 17 17 18 17 17 16 16 15 16 16 16 16 16 16 16 16 17 17 16 16 16 16 16 16 16 16 16
24 24 22 23 24 25 26 24 22 23 26 25 22 21 20 18 19 20 20 19 18 17 18 18 18 18 18 17 17 18 18 18 16 17 18 17 17 17 18 18 17 18 18 18 18 18 17 17 17 17 16 16 16 16 16 16 16 16 17 17 17 17 17 17 16 16 15 16 16 16 16 16 16 16 16 16 16 16 16 15 15 15 15 15 16 16
Height
773 781 787 786 784 781 781 782 781 783 785 788 791 796 800 801 802 801 798 794 791 797 801 799 799 798 794 790 787 784 784 788 788 787 790 788 785 785 785 785 785 785 785 784 785 787 789 791 792 794 796 798 801 802 804 806 807 809 810 812 813 814 815 817 818 820 821 823 824 826 827 829 830 832 834 836 837 839 840 842 843 844 845 847 848 849
776 786 785 778 777 776 778 781 781 783 785 787 791 795 796 799 800 798 796 793 791 797 801 799 799 797 793 791 787 783 785 789 788 787 791 790 788 787 785 786 786 786 786 786 787 788 789 791 792 794 795 797 800 802 803 805 807 809 810 811 812 813 815 816 817 819 820 822 824 825 827 828 831 832 834 836 837 839 840 842 843 844 845 846 848 849
785 786 777 770 774 777 779 780 781 783 784 786 791 792 793 796 798 798 796 792 791 797 800 799 800 797 793 791 788 785 787 788 786 787 790 791 790 788 786 786 786 788 788 788 788 788 789 790 792 794 795 797 799 801 803 805 807 809 810 811 812 813 814 816 817 819 820 822 824 826 827 829 831 833 834 836 837 839 840 841 843 844 845 846 847 848
790 780 769 768 772 775 779 780 780 783 783 785 789 792 792 795 797 797 797 794 792 795 798 797 798 795 792 792 790 787 787 787 788 789 789 789 790 788 785 784 785 788 789 789 788 788 788 790 792 793 794 797 799 801 803 805 807 808 809 811 812 813 814 816 817 819 821 823 825 827 829 830 832 833 835 836 837 839 840 841 842 843 845 846 847 848
784 772 766 769 771 773 776 779 781 782 784 785 786 788 789 791 795 795 796 795 794 797 795 795 802 800 794 795 794 789 787 789 790 791 791 789 787 787 785 783 782 784 786 787 788 787 788 789 791 792 794 796 799 800 801 803 805 807 809 810 811 813 814 816 817 819 821 823 825 827 829 831 832 834 835 836 837 838 839 840 841 842 844 845 846 847
777 768 766 769 772 774 776 778 778 780 785 785 780 779 780 785 791 795 796 797 803 807 797 798 814 810 796 796 798 792 791 791 791 792 791 789 786 785 787 785 783 783 784 784 785 786 787 788 790 792 794 796 798 799 800 802 805 806 808 810 811 812 814 815 817 819 821 823 825 826 828 830 831 832 833 834 835 837 838 839 840 842 843 844 846 847
772 766 765 769 771 775 778 776 775 778 787 788 776 771 776 782 788 795 798 800 810 814 802 799 814 816 802 797 795 793 793 792 791 790 788 787 786 785 786 785 784 784 784 784 784 785 786 787 789 791 792 794 796 798 800 802 805 806 808 809 811 812 814 815 817 819 821 822 824 826 827 828 830 831 832 834 835 836 837 838 840 841 842 844 845 846
770 766 767 768 769 775 778 774 772 775 783 785 774 772 779 783 790 797 799 803 810 812 807 802 808 817 811 798 793 793 795 795 791 790 788 785 785 783 783 783 783 783 783 784 785 784 785 786 787 789 790 792 794 797 799 801 804 806 807 809 810 812 813 815 817 818 820 821 823 825 826 828 829 830 832 833 835 836 837 838 839 840 842 843 844 845
768 767 768 768 770 775 772 768 768 771 779 782 775 776 781 785 792 795 798 804 808 811 814 808 807 817 814 800 796 794 797 799 792 788 786 785 784 782 781 781 780 781 781 781 782 782 783 784 785 787 789 791 794 797 798 800 803 805 807 808 810 812 813 815 816 818 820 821 823 824 826 827 829 830 832 833 834 836 836 837 838 839 841 842 843 845
766 765 763 766 772 772 765 765 768 770 778 780 777 778 781 787 791 793 798 802 806 813 815 810 809 817 813 802 802 801 799 798 789 783 783 782 783 781 779 779 778 779 780 780 780 780 781 782 783 786 788 791 793 795 797 799 802 804 806 808 809 811 813 814 816 817 819 821 822 824 825 827 828 830 832 833 834 835 836 837 838 839 840 841 843 844
763 759 759 763 765 764 761 765 769 769 772 774 777 782 787 791 790 795 800 800 812 820 813 810 811 815 813 801 800 800 792 787 783 781 782 780 781 780 777 777 777 777 778 778 779 779 780 782 784 786 788 791 793 795 797 799 801 803 805 807 808 810 812 813 815 816 818 820 822 823 825 826 828 829 831 832 833 834 835 836 837 838 839 841 842 843
765 762 763 760 758 759 760 766 771 771 770 772 779 785 793 800 800 803 805 806 822 825 813 813 812 814 818 802 793 790 781 778 780 779 779 777 777 777 775 775 774 775 775 776 778 778 780 782 784 786 787 790 792 794 796 798 800 802 804 806 808 809 811 812 814 816 817 819 821 823 825 826 827 829 830 831 832 833 834 835 836 838 839 840 841 842
768 765 766 761 757 758 762 771 777 775 775 778 782 787 801 818 821 822 823 824 828 822 813 814 811 814 814 795 786 786 778 776 776 772 772 772 772 773 773 773 772 773 773 774 776 777 779 780 782 784 786 788 791 792 794 796 798 801 802 804 806 808 810 811 813 815 816 818 820 822 824 825 827 828 829 830 831 833 833 835 836 837 838 839 840 841
777 771 767 765 762 758 761 772 781 781 781 783 785 787 801 822 834 838 839 837 830 819 814 814 812 813 807 790 784 784 778 775 772 768 766 766 768 768 768 769 770 770 771 772 774 775 776 778 779 781 783 786 788 790 792 794 796 799 801 802 804 806 808 810 812 813 815 817 818 821 822 824 826 827 828 829 830 832 833 834 835 836 837 838 839 840
795 791 778 773 770 764 764 768 772 775 778 783 783 783 790 804 818 827 829 826 825 824 821 817 814 811 803 791 783 778 775 773 770 766 763 762 763 764 765 767 768 769 770 770 771 772 773 775 777 779 781 783 785 788 790 793 795 797 799 800 802 804 806 808 810 812 813 815 817 819 821 823 825 826 827 829 830 831 832 833 835 836 837 838 839 840
802 800 779 771 770 767 768 767 765 770 778 783 781 781 786 788 793 808 817 815 817 823 823 819 812 801 792 784 777 775 774 772 770 768 765 764 764 763 765 767 768 769 769 769 770 771 771 773 775 777 779 781 783 786 788 790 792 794 797 799 800 802 805 806 808 810 812 814 816 818 820 822 823 825 826 828 829 830 831 833 834 835 836 837 838 840
799 797 777 770 770 766 768 767 765 770 779 781 782 785 786 782 783 800 816 816 816 819 817 816 809 796 791 785 777 776 775 772 774 772 769 768 765 765 766 766 767 768 767 768 768 769 770 771 773 775 777 779 781 784 786 787 790 792 794 797 799 801 803 805 807 809 810 813 815 817 818 820 822 823 825 826 828 829 831 832 833 835 836 837 838 839
789 792 780 775 775 767 764 766 765 765 770 778 785 784 782 784 785 792 808 817 822 822 814 814 814 807 804 795 781 779 780 778 778 776 774 771 767 767 768 767 767 765 765 766 766 767 769 770 772 774 775 777 778 780 783 785 788 790 793 795 797 799 801 803 805 807 809 811 813 815 817 819 821 822 824 825 827 829 830 831 833 834 835 836 837 838
783 791 785 777 777 771 763 767 772 769 766 772 778 777 780 791 794 794 804 815 823 826 818 814 816 814 812 801 788 786 787 785 783 780 777 773 770 770 768 767 767 765 765 766 766 766 767 768 770 772 773 775 777 779 781 784 787 789 792 794 796 798 799 802 804 806 808 810 812 814 816 818 820 821 823 824 826 828 829 830 832 833 834 835 837 837
780 791 792 779 775 776 770 774 784 782 774 771 774 777 779 788 794 797 802 808 816 826 825 818 812 808 804 798 790 789 789 787 786 783 779 776 773 770 768 767 766 765 765 765 765 765 764 765 768 769 772 773 775 778 780 783 786 787 790 792 794 797 799 801 803 804 806 808 810 813 815 817 818 820 822 823 825 826 828 829 831 832 833 834 836 837
778 788 794 784 776 782 784 786 790 789 785 781 782 785 786 788 793 798 803 805 807 817 826 826 816 801 791 787 785 786 786 786 785 783 779 776 772 770 768 766 765 765 764 763 763 764 763 765 767 768 771 773 775 778 780 782 784 786 789 791 792 795 798 799 801 802 804 806 809 811 813 815 817 818 820 822 823 825 826 828 830 831 832 833 834 836
778 785 792 792 788 791 792 789 787 787 786 786 788 792 794 794 795 802 810 810 805 809 818 825 820 800 784 782 782 784 785 784 783 781 779 776 773 770 768 766 765 764 763 763 761 762 763 764 767 770 773 775 777 778 780 782 784 785 787 789 791 793 795 797 799 800 802 804 807 809 811 813 815 817 819 820 822 823 825 827 828 830 831 832 833 834
773 780 790 798 798 795 792 786 786 786 783 784 788 791 795 797 796 803 811 808 806 811 814 821 821 801 785 784 783 783 785 784 782 780 778 775 772 771 768 766 766 763 761 761 760 761 763 764 767 770 773 778 781 781 781 781 782 784 786 787 789 791 793 795 797 798 800 803 805 807 809 811 813 815 817 818 820 821 823 825 827 828 829 830 832 833
772 783 793 800 800 794 788 783 782 783 782 785 789 789 793 797 795 799 804 803 806 811 812 821 822 800 785 786 785 784 786 784 783 780 778 776 772 770 769 767 766 764 761 760 760 761 764 764 766 767 768 774 780 785 786 785 783 783 784 787 788 789 791 793 795 797 799 801 802 805 808 810 811 813 815 816 818 819 821 823 825 826 828 829 830 831
774 788 795 803 811 808 802 798 791 786 787 791 793 792 793 795 796 799 802 803 807 807 805 812 812 796 787 789 787 787 788 786 785 781 777 776 773 770 769 767 766 765 763 762 760 760 761 762 763 764 765 768 772 777 781 785 786 784 783 784 786 787 789 791 793 796 797 799 801 803 805 807 809 811 813 814 816 817 819 821 822 824 826 827 828 829
774 789 791 799 815 822 818 812 802 793 794 797 796 793 793 795 797 799 803 808 810 809 807 804 800 792 789 791 790 789 790 788 785 782 778 776 773 771 770 768 767 765 764 763 762 761 759 758 759 760 762 764 766 767 770 774 780 783 783 783 783 785 788 789 792 794 795 797 799 800 803 805 807 809 810 812 814 816 817 819 821 822 824 825 826 827
778 788 786 787 797 803 800 795 793 793 795 798 797 794 794 797 797 799 806 810 808 810 809 800 796 795 790 792 794 791 789 788 784 781 778 775 773 772 770 768 766 765 765 764 763 762 760 758 758 759 760 761 762 763 764 767 771 777 781 781 782 784 785 787 790 792 794 795 797 798 800 802 804 806 808 810 812 814 816 818 819 820 822 823 824 826
777 785 786 785 783 784 784 785 789 791 790 792 794 793 794 797 798 800 806 805 803 811 810 799 798 798 788 787 792 790 787 786 782 780 778 775 773 772 771 769 767 765 765 765 764 763 762 760 759 759 760 760 760 762 764 765 767 770 775 778 780 782 784 786 787 789 791 793 795 796 798 800 802 804 806 808 811 813 815 816 818 819 820 821 822 823
772 780 787 788 782 781 786 790 790 789 789 792 792 791 792 795 797 798 799 798 800 807 803 795 799 798 786 784 790 788 785 784 780 778 776 774 773 772 772 772 769 768 767 766 765 763 763 762 761 760 760 760 761 762 763 765 765 767 770 773 776 779 781 784 786 787 789 791 793 794 796 798 800 802 805 807 808 810 812 814 816 817 818 819 820 821
770 778 787 789 784 782 787 793 793 790 791 792 791 791 792 793 794 794 794 794 797 798 794 794 800 795 784 784 786 783 782 780 778 776 775 775 775 774 774 774 772 770 768 767 766 764 763 762 761 761 761 761 761 762 762 763 764 765 767 769 772 775 778 781 784 786 788 791 792 794 796 798 799 800 803 805 806 808 810 811 813 814 816 817 818 819
770 781 788 787 788 787 788 793 795 793 792 791 790 791 793 794 796 796 794 794 796 797 794 796 799 791 782 783 783 780 780 779 778 777 776 777 777 776 775 774 773 771 769 768 767 766 764 762 760 760 761 761 761 762 762 763 763 764 765 766 768 771 774 777 780 783 786 788 790 792 795 797 799 800 801 802 804 806 807 809 810 812 813 814 815 816
770 784 788 788 794 795 791 795 796 792 793 794 789 787 788 791 793 792 792 792 791 791 793 797 796 788 783 784 784 783 782 781 780 778 778 778 778 777 776 774 773 772 770 769 768 767 765 763 761 761 760 760 761 761 761 761 762 763 764 765 766 768 771 774 776 780 783 786 788 788 789 792 795 798 799 800 801 803 804 807 808 809 811 811 813 814
771 780 786 791 797 797 797 798 794 792 800 799 789 783 783 785 787 788 788 789 787 786 790 792 789 784 785 786 787 786 784 783 781 780 780 781 779 777 776 774 774 773 771 769 768 766 766 764 762 761 760 759 759 759 759 759 760 761 762 764 766 767 769 772 774 778 781 784 788 788 787 788 789 792 795 797 798 800 802 804 805 807 808 809 810 811
774 774 782 789 791 796 801 796 793 804 810 799 787 785 784 782 783 784 783 782 782 783 784 784 784 785 787 786 785 786 784 781 780 779 779 779 778 778 776 774 774 772 770 769 767 765 764 763 761 761 759 759 758 757 757 758 758 760 761 763 766 767 769 771 772 775 777 779 783 785 786 787 787 787 789 793 796 797 799 801 802 803 805 806 807 809
775 776 784 790 790 797 801 796 805 816 805 785 782 785 783 781 781 781 780 778 780 782 782 782 783 785 785 784 783 783 781 779 779 778 777 777 776 776 776 774 773 772 770 769 767 765 764 761 760 759 758 758 757 756 756 756 757 759 761 762 764 766 767 769 770 771 773 775 778 780 782 783 784 785 787 790 793 795 796 797 799 800 801 803 805 806
771 776 783 790 795 800 801 802 809 807 789 779 782 781 778 781 782 782 783 778 774 778 780 779 780 783 784 784 782 781 779 777 777 777 776 776 775 774 775 774 773 772 770 768 767 765 763 761 760 759 757 757 756 756 756 756 757 758 759 760 762 764 765 767 768 769 770 772 774 776 778 779 781 784 786 787 788 790 793 794 796 797 799 801 803 805
766 771 775 785 796 800 802 803 799 795 789 784 780 776 776 778 777 781 786 778 769 772 775 774 779 784 783 782 781 779 778 779 781 780 776 775 775 774 774 773 772 771 769 767 766 765 763 761 759 758 757 756 756 755 755 755 756 757 758 759 761 762 764 765 766 767 769 770 771 773 775 776 779 781 783 784 784 786 788 790 792 795 797 799 801 803
763 767 769 779 794 798 800 802 802 803 799 785 775 773 772 772 771 775 783 779 768 769 772 770 776 782 782 781 782 780 780 784 788 784 777 774 775 773 773 772 771 770 769 767 766 764 762 760 759 757 757 757 756 755 754 754 755 757 758 759 760 762 764 765 766 767 768 769 771 772 774 775 777 779 781 781 781 782 784 786 789 792 794 797 799 801
765 769 769 777 792 797 795 798 804 804 791 777 773 771 769 772 771 774 787 786 770 768 773 770 773 780 780 780 781 782 785 790 789 783 776 775 775 773 773 772 771 770 769 767 766 765 762 760 759 757 757 756 756 755 754 755 756 757 758 759 760 761 762 764 765 767 768 769 771 772 773 774 776 777 778 779 780 781 783 784 786 788 791 794 797 799
768 771 774 780 790 794 793 796 799 793 780 773 772 770 770 770 769 781 800 791 769 767 773 769 770 777 777 779 781 783 786 787 784 780 776 775 775 774 773 773 771 770 768 766 766 764 762 760 759 757 757 757 756 755 754 755 756 757 758 759 759 760 761 762 762 764 767 770 771 772 772 773 775 776 777 778 778 779 781 782 784 786 788 790 793 795
774 776 781 785 787 789 791 794 794 785 774 770 770 768 768 770 776 791 797 780 766 770 772 767 769 773 775 777 781 781 781 780 779 778 775 774 775 774 773 773 771 770 769 767 766 764 762 761 759 758 758 758 758 757 756 757 758 758 758 758 759 760 761 761 762 763 766 769 769 770 770 771 773 774 775 776 777 778 779 781 783 785 786 787 790 792
777 780 785 787 789 792 792 792 795 788 772 765 769 768 767 775 786 787 778 769 769 770 769 768 769 771 773 776 777 778 778 777 777 777 776 775 775 774 774 773 771 770 769 767 766 764 763 761 760 760 760 759 759 759 758 759 760 760 759 759 759 760 760 761 762 763 765 767 767 768 768 770 771 773 774 775 776 778 779 781 782 784 785 786 788 790
769 774 782 786 789 795 796 796 799 791 772 763 768 770 770 774 778 773 767 770 772 768 767 769 769 769 773 774 775 777 777 777 778 777 776 776 775 775 775 774 772 770 769 767 767 765 764 763 762 762 761 760 760 760 759 760 760 760 760 760 759 759 759 760 761 762 764 765 766 766 767 769 771 773 774 775 776 777 779 780 782 784 786 787 788 789
765 769 777 781 781 787 792 791 785 776 767 763 766 769 769 768 767 766 766 769 769 768 769 768 767 769 771 771 774 776 776 777 779 777 777 777 776 776 776 774 772 771 770 769 768 767 766 765 765 764 762 761 761 761 761 761 761 761 761 761 761 760 760 760 761 763 764 765 765 766 768 770 772 773 774 776 776 777 778 778 780 782 784 786 788 789
763 762 765 768 771 775 776 773 768 766 766 766 765 766 766 765 765 765 765 765 767 769 767 766 768 770 769 770 773 774 775 778 778 777 778 778 777 776 775 774 774 773 772 771 770 769 769 768 768 767 764 761 761 761 761 763 763 763 763 763 763 763 762 763 763 764 765 766 767 768 769 770 771 773 775 777 778 778 778 778 779 781 783 785 788 790
761 761 759 760 767 770 767 766 765 765 765 765 765 766 765 764 764 764 763 764 765 765 765 765 767 768 769 771 773 774 776 777 777 778 779 778 777 776 775 775 775 774 774 774 773 772 771 771 771 769 765 764 764 763 764 765 766 766 766 765 765 765 765 765 765 765 767 768 769 770 771 771 772 774 776 778 779 779 779 779 780 783 784 786 789 792
761 762 760 762 767 769 767 766 764 763 763 763 763 764 763 763 763 762 762 763 763 764 765 765 765 767 769 770 771 773 775 775 776 778 778 777 777 776 775 776 777 776 776 776 775 774 773 772 772 771 769 769 769 767 767 768 769 769 769 768 768 768 768 768 768 769 770 771 772 773 773 773 774 775 778 780 781 781 781 782 783 785 787 788 790 792
759 758 761 766 767 766 765 764 763 762 762 761 761 761 761 761 762 762 762 762 762 764 764 764 765 767 768 769 770 772 774 775 776 777 778 778 778 777 776 777 778 778 778 778 777 776 775 774 774 773 773 773 773 771 770 771 771 771 771 771 772 772 772 772 772 772 773 773 774 775 775 776 777 779 781 782 783 782 783 784 785 787 789 790 791 792
755 757 762 767 767 766 764 763 763 764 761 758 757 758 759 760 761 762 763 763 763 764 765 765 766 766 767 769 770 771 773 776 776 776 778 778 777 777 777 778 779 779 779 779 779 778 777 777 778 777 776 776 776 774 773 773 774 774 772 772 774 774 775 776 776 776 776 776 776 777 778 779 781 782 783 783 783 783 784 786 787 788 789 791 792 793
755 759 765 767 768 766 761 757 759 761 759 755 754 754 756 759 761 762 763 764 764 764 764 765 767 767 768 768 769 770 773 775 776 777 778 778 778 778 778 779 780 780 780 780 781 780 780 780 780 780 780 779 778 777 775 775 776 776 774 775 776 775 776 777 778 779 779 778 779 780 780 782 783 783 784 784 784 785 786 788 790 790 791 793 794 795
749 754 758 760 761 758 752 750 753 754 753 752 752 752 754 757 759 760 762 763 763 763 763 764 766 768 769 769 769 770 772 774 776 777 777 778 779 779 779 780 780 781 781 782 782 782 782 782 782 781 781 781 780 779 777 776 777 777 777 778 778 778 778 779 779 781 781 781 782 782 782 783 784 785 786 786 787 787 788 790 792 793 794 795 795 796
Wind_Speed
3 2 2 5 6 7 7 7 7 5 3 4 3 2 3 3 2 3 2 3 0 3 1 3 3 4 4 4 4 3 6 5 3 7 3 2 2 4 6 6 7 7 5 7 14 17 18 19 20 19 17 17 17 17 18 18 19 19 19 17 16 18 17 17 16 16 16 16 15 17 18 18 18 17 17 17 16 16 16 14 12 11 12 12 10 8
4 1 6 9 9 8 7 6 5 4 2 2 4 2 2 2 3 3 3 2 1 1 2 2 1 5 4 2 4 3 5 7 7 8 3 2 2 3 6 7 7 5 3 5 9 13 17 18 19 18 17 18 19 19 20 20 20 20 20 18 17 18 18 17 17 17 18 18 18 19 20 19 19 18 17 17 17 16 15 13 12 12 12 13 11 8
4 3 10 10 7 5 4 5 5 4 3 2 3 2 2 2 2 2 1 1 2 1 3 1 0 4 5 2 3 5 5 6 7 8 3 3 4 5 7 8 7 6 5 5 6 9 15 17 18 18 17 19 20 20 20 20 20 21 20 19 18 18 17 17 18 19 19 19 19 19 18 18 18 17 17 16 16 15 14 13 12 13 14 13 12 9
2 6 9 5 6 7 3 4 7 4 2 2 3 2 2 3 3 1 2 1 2 0 2 2 1 3 4 3 3 4 4 6 7 5 3 4 6 5 6 8 9 8 7 7 6 8 12 15 17 17 17 18 19 20 21 20 21 22 21 20 19 18 17 17 18 18 19 18 18 17 16 17 15 15 16 15 15 15 15 13 12 14 15 14 13 10
6 9 5 2 5 7 4 3 6 4 2 2 3 4 4 4 3 1 2 2 3 3 1 4 3 4 2 2 2 1 2 4 6 5 6 6 6 4 4 7 9 10 10 10 9 8 10 14 17 18 18 18 19 21 22 22 22 23 22 21 19 18 17 18 18 18 18 18 18 17 15 15 14 13 16 16 16 16 15 14 14 15 16 15 13 11
8 8 2 2 3 5 4 2 4 6 2 4 4 9 7 5 5 3 4 4 4 4 2 3 2 4 3 1 3 2 2 3 5 6 7 6 6 4 4 6 6 7 8 9 9 9 10 13 16 18 18 18 19 22 24 24 23 23 23 22 20 19 18 18 18 18 18 19 20 19 17 17 16 14 17 19 18 18 17 15 15 16 17 15 14 12
5 4 3 2 4 6 4 2 5 7 4 2 4 8 7 8 8 6 6 4 2 2 3 3 3 3 4 2 5 5 5 7 5 5 7 5 5 5 5 6 6 6 6 6 7 8 10 14 16 17 20 21 21 22 23 23 22 22 24 24 22 21 19 18 18 18 19 19 20 20 19 20 20 18 18 19 18 17 16 15 15 16 17 16 15 13
3 4 7 5 5 6 3 2 5 8 7 2 4 3 8 8 8 7 6 4 1 2 4 3 3 1 3 4 5 7 7 8 7 7 6 5 6 7 6 6 6 7 7 7 7 8 10 14 18 19 22 24 23 21 22 23 23 23 24 25 23 22 21 19 19 19 19 19 20 19 18 19 20 19 18 18 17 16 15 15 15 16 16 16 15 14
2 2 3 4 6 3 3 4 7 9 5 3 2 7 8 7 8 6 6 3 1 2 4 4 1 0 4 4 2 4 7 8 11 11 9 7 8 7 8 8 8 8 8 8 9 10 12 16 21 22 23 24 23 22 23 24 24 24 25 26 25 23 22 20 20 20 20 19 18 17 17 18 18 17 17 17 17 16 15 15 15 15 15 15 15 14
3 4 4 3 2 3 5 2 6 7 3 1 6 10 8 7 7 5 4 3 2 3 3 5 1 2 4 4 1 3 5 9 12 12 9 8 8 8 8 9 9 8 7 8 9 10 14 19 22 22 22 23 23 23 23 24 24 24 25 25 26 25 23 22 21 20 20 20 19 18 18 18 18 17 16 16 16 16 16 15 15 15 15 15 15 15
5 3 3 3 3 6 4 3 2 4 7 7 7 9 8 5 4 4 3 3 3 2 4 5 3 3 2 3 2 3 3 6 8 8 8 8 8 9 9 9 9 8 8 8 8 10 14 18 20 20 21 22 22 22 22 22 23 24 25 26 26 26 24 23 23 22 21 21 21 20 19 19 20 19 18 18 18 18 17 17 16 15 15 15 15 14
7 5 1 3 2 2 4 5 5 4 5 6 5 6 5 4 4 4 4 3 2 3 5 3 2 3 1 3 3 3 5 4 5 8 10 11 10 10 10 9 9 8 8 8 8 8 10 12 15 18 20 21 22 22 22 23 23 24 25 26 26 27 26 25 24 24 23 22 22 21 20 19 19 20 20 20 20 19 19 18 17 16 16 16 15 14
5 1 3 6 2 2 3 4 5 5 5 5 5 5 5 3 3 2 3 2 1 4 4 1 3 2 3 4 3 5 6 5 5 8 9 11 12 11 9 9 8 8 8 8 8 8 8 10 14 18 20 21 22 24 25 25 24 24 25 26 27 27 27 26 26 25 24 24 23 22 20 18 18 19 20 20 20 19 19 18 18 18 17 17 16 15
4 4 8 9 4 2 4 4 1 1 1 3 4 4 4 3 3 1 3 2 2 4 3 0 2 1 3 2 3 5 5 6 6 7 8 9 10 11 11 10 10 9 9 8 8 9 9 10 15 19 21 22 23 25 26 26 26 26 25 26 27 28 28 27 27 26 26 25 24 23 21 18 18 19 20 21 20 19 18 19 19 18 17 17 16 17
2 4 6 5 3 4 4 4 4 4 3 3 4 5 4 4 3 2 3 2 3 3 3 3 0 2 1 1 2 4 4 4 6 5 3 4 7 9 9 8 8 9 9 8 9 9 10 13 18 20 21 23 24 25 26 26 26 26 26 27 28 27 28 28 28 27 27 26 25 23 22 19 19 20 21 21 20 19 18 19 18 18 17 16 17 18
4 2 5 4 4 2 3 1 3 5 3 2 2 4 2 3 4 2 3 5 4 1 1 2 2 3 2 3 4 4 3 4 9 9 6 3 1 5 7 6 6 7 8 8 9 9 11 15 19 20 22 23 24 25 26 27 27 28 27 28 29 29 28 28 28 28 27 27 26 24 22 20 19 20 21 22 22 20 19 19 18 17 16 16 16 18
3 1 5 5 4 3 3 1 2 4 2 1 1 1 2 3 6 3 1 0 3 2 2 1 2 4 2 2 5 6 7 8 10 10 8 6 2 4 6 7 7 8 8 8 8 9 10 14 18 21 23 24 24 26 27 28 29 30 29 29 29 29 29 28 28 28 28 27 26 25 22 20 20 21 22 23 23 21 20 19 18 17 16 16 16 17
4 1 5 3 2 2 0 2 3 2 4 3 1 3 3 2 4 3 1 3 3 1 4 2 2 4 2 1 4 8 9 9 9 8 7 6 4 1 2 2 5 7 7 7 8 9 9 13 17 20 22 25 27 28 29 30 30 30 30 30 30 30 29 29 29 28 28 28 27 25 22 21 21 21 21 23 23 21 20 20 19 18 18 18 17 18
4 1 6 3 2 5 4 4 3 5 3 4 2 3 2 3 1 1 1 1 1 1 3 3 3 3 2 3 4 6 6 8 8 7 6 6 5 3 2 1 2 4 5 6 7 8 9 12 17 21 23 25 28 28 29 29 29 29 29 29 29 30 31 30 29 28 28 28 28 25 23 22 21 20 21 22 23 22 21 20 19 19 19 19 18 19
3 3 3 4 2 3 6 4 1 5 5 4 2 2 2 3 3 0 1 2 2 1 2 3 3 2 4 4 2 3 4 4 6 6 5 5 5 4 3 2 2 3 5 6 7 8 9 12 18 22 23 25 27 28 28 28 28 29 29 29 29 29 29 29 29 29 29 29 28 26 24 23 22 21 21 22 22 22 21 20 19 19 18 19 19 19
3 3 1 5 4 3 2 1 1 2 2 2 3 3 3 2 1 1 1 1 2 3 2 0 2 4 5 3 4 4 4 3 3 4 4 5 5 4 4 3 3 2 3 5 6 7 8 11 17 21 23 24 25 24 25 26 28 29 28 29 29 28 28 28 29 30 30 30 28 27 27 26 25 23 22 22 22 22 21 20 20 19 18 19 19 20
1 2 2 2 4 2 2 4 2 3 3 3 2 1 1 1 1 3 1 2 1 3 3 3 2 6 5 1 3 3 2 1 2 4 5 5 5 5 5 3 2 2 2 2 4 5 5 7 11 13 14 16 19 23 24 25 26 27 28 29 29 28 28 29 30 30 30 30 29 29 28 28 27 25 24 23 22 22 21 21 21 20 19 19 20 20
3 3 4 1 2 2 7 7 3 2 3 4 2 2 3 1 3 5 2 3 1 2 1 3 1 5 5 1 2 1 0 1 2 4 5 5 5 5 4 4 3 2 3 3 3 3 4 5 6 6 3 4 8 13 19 24 26 26 28 29 28 28 30 30 30 30 30 29 29 29 28 28 28 27 26 25 24 23 22 21 21 21 21 21 21 21
2 3 3 1 4 4 5 6 4 2 3 3 2 2 3 1 1 4 4 3 2 2 2 2 1 5 4 3 3 3 2 2 2 4 5 6 5 4 5 5 4 4 3 3 4 4 6 9 11 11 11 7 4 9 12 16 23 26 27 27 28 29 30 30 30 29 29 29 29 28 27 27 27 27 27 27 26 25 23 22 22 22 22 22 21 22
1 1 3 3 3 5 5 6 6 4 3 2 2 2 1 2 3 2 1 2 0 3 4 4 3 5 3 3 4 4 4 3 4 4 6 6 5 4 5 4 4 4 4 3 3 5 7 8 10 13 17 18 17 15 15 16 19 23 26 27 28 29 29 29 29 28 29 29 28 27 27 27 26 26 27 28 28 27 25 23 23 23 22 22 22 22
3 3 3 4 3 1 1 2 3 2 0 0 1 3 1 3 3 1 1 3 1 3 3 4 4 5 4 3 4 4 3 3 3 4 6 6 6 6 6 5 4 4 4 5 4 4 7 8 9 13 18 20 23 27 26 22 21 22 24 27 29 29 28 28 28 28 28 28 28 27 27 27 26 26 27 28 28 27 26 25 24 24 23 22 22 22
4 2 3 6 6 6 6 6 5 3 2 1 1 1 1 1 3 3 3 1 3 2 1 4 4 3 4 3 2 2 2 2 3 4 5 6 6 6 6 6 6 4 4 4 4 4 5 6 6 10 16 21 25 28 29 28 24 22 23 25 26 27 27 27 28 28 28 28 28 28 28 28 27 27 27 27 27 27 26 25 24 24 24 23 23 22
5 1 3 6 6 6 7 5 3 3 3 3 3 2 2 1 3 4 2 3 3 3 3 6 3 2 5 4 3 2 2 3 3 4 5 6 6 6 5 7 8 6 5 5 5 5 5 5 5 7 12 18 23 25 24 25 24 24 25 25 25 25 26 27 28 28 28 28 27 28 28 28 28 28 27 26 26 26 25 25 25 25 24 23 23 24
6 2 3 4 4 5 4 3 2 3 2 3 5 3 3 3 4 4 4 5 5 4 6 6 3 5 6 4 4 3 3 4 4 4 5 6 7 7 6 8 9 8 7 7 6 6 5 5 4 4 9 14 18 20 21 21 22 24 25 24 24 24 24 24 26 27 27 27 28 29 29 28 27 27 26 26 26 27 27 26 26 26 25 25 25 26
4 2 2 3 1 5 2 2 4 4 3 1 3 4 4 4 5 5 5 5 5 5 6 4 3 7 6 5 5 3 2 3 4 4 6 6 7 7 7 8 9 8 8 8 7 7 6 5 4 2 5 10 14 17 19 20 20 22 24 24 24 24 24 24 23 23 23 22 22 21 22 24 26 26 26 26 26 27 28 28 28 27 27 27 26 27
2 1 1 4 2 5 4 2 2 4 4 2 5 4 3 2 3 3 3 3 3 4 5 1 2 7 5 3 3 2 2 3 4 6 6 5 6 7 7 8 7 8 8 8 7 7 7 7 5 3 3 6 12 16 19 20 21 22 23 24 25 26 26 25 24 23 22 20 19 19 17 18 21 23 25 26 27 27 28 28 28 27 28 28 27 27
3 2 1 4 2 4 4 3 3 4 4 1 6 7 5 3 3 3 3 3 4 3 2 0 2 5 4 1 1 2 3 4 6 6 5 5 6 7 7 7 7 7 8 8 7 7 7 7 6 5 4 6 10 15 19 21 21 21 23 25 27 28 27 27 26 24 22 19 20 23 23 21 20 21 23 25 26 27 27 27 27 27 28 28 28 27
4 4 2 3 3 4 5 1 4 5 6 3 6 6 5 3 3 3 2 4 5 5 4 3 4 4 2 2 2 3 5 6 6 4 3 4 6 7 7 7 8 8 7 7 7 8 7 6 6 6 6 7 9 14 18 21 23 24 24 24 25 26 26 26 25 22 20 19 18 21 24 26 25 23 23 25 26 26 26 26 27 28 28 29 28 27
4 6 4 3 3 3 6 1 4 4 2 4 5 4 4 3 4 5 4 5 5 3 3 3 3 3 4 5 5 5 5 5 4 3 2 3 4 5 6 6 6 7 7 7 7 7 6 6 7 7 6 6 9 12 16 20 22 23 22 22 22 22 23 24 23 22 23 24 24 22 22 24 27 27 26 25 24 25 25 26 27 28 28 28 28 28
4 5 3 2 3 1 2 4 4 2 5 6 5 3 4 3 5 4 5 5 5 4 2 2 3 4 6 6 5 5 4 2 2 2 3 3 3 4 5 5 6 7 7 7 7 7 7 8 8 7 6 4 6 9 12 16 18 17 17 18 19 21 22 24 24 24 24 26 27 25 24 24 26 26 25 23 23 24 25 26 28 28 28 27 27 27
6 5 3 2 3 2 1 3 2 5 6 5 6 4 3 2 3 1 5 6 6 6 5 4 4 5 5 4 4 3 1 2 1 1 2 3 3 3 4 5 6 6 6 6 7 8 11 13 10 8 7 4 3 5 7 10 12 14 16 18 20 21 22 23 24 24 25 25 26 26 25 26 26 24 23 24 26 26 25 26 27 27 27 25 24 24
7 5 3 2 2 2 2 2 2 4 5 4 4 3 3 3 4 3 2 6 6 7 7 5 4 5 3 2 2 1 2 2 1 2 2 3 3 3 3 4 5 5 6 7 8 11 14 16 12 8 8 5 3 5 7 10 12 15 17 18 19 20 20 21 22 23 23 23 25 25 25 26 26 24 24 26 27 27 27 28 27 26 24 23 22 23
5 4 5 4 2 3 4 1 1 2 3 5 6 4 2 4 5 6 3 5 6 5 7 6 6 6 4 4 3 2 3 1 1 3 3 2 3 3 3 4 5 6 8 8 9 12 15 17 14 9 6 4 2 1 8 15 16 16 16 16 17 19 18 17 18 20 22 24 24 24 24 24 24 24 25 27 28 28 29 29 29 27 25 22 19 16
6 3 4 5 2 2 4 3 2 3 4 6 6 6 4 4 5 5 4 5 6 4 6 6 7 7 6 6 5 3 2 1 3 4 3 1 2 3 4 4 5 7 9 10 9 10 13 15 12 6 2 1 1 3 7 15 17 16 16 16 16 18 18 18 18 19 21 22 22 22 23 23 22 22 24 26 28 29 28 29 30 29 26 22 17 15
6 4 4 5 2 2 3 2 2 3 4 4 6 6 4 3 5 5 2 6 5 4 5 6 7 8 7 6 5 4 3 3 3 4 2 2 3 3 4 4 4 6 10 11 11 10 11 11 9 3 2 3 3 5 9 13 14 13 13 13 12 13 14 15 15 14 15 16 18 19 20 21 21 22 23 25 27 28 29 29 28 26 23 21 18 17
3 3 2 4 3 3 4 2 3 4 4 5 5 5 3 2 5 4 3 6 3 4 4 5 7 7 7 7 6 4 4 3 3 3 2 3 3 4 6 6 6 6 8 10 11 10 9 8 6 1 4 7 6 7 10 12 11 10 11 12 11 10 9 10 10 11 12 13 15 17 18 19 20 21 22 25 26 28 28 26 25 24 22 21 19 17
2 1 1 3 3 2 3 2 2 4 4 4 3 1 1 2 2 3 5 3 2 4 4 3 5 6 6 7 6 4 2 2 2 1 2 3 3 3 5 6 6 7 8 10 11 10 9 8 7 3 4 8 9 8 10 12 11 11 12 12 11 9 8 8 8 9 10 11 12 14 15 16 18 19 21 23 23 23 23 21 21 21 20 19 18 16
3 3 1 2 3 2 2 3 1 2 3 3 5 2 0 2 4 5 2 1 0 4 3 2 3 5 5 5 4 4 3 3 2 3 3 3 4 3 3 4 6 7 10 12 12 11 9 10 10 7 3 5 8 9 11 11 11 12 13 13 11 9 8 7 7 6 7 7 9 11 12 13 15 18 20 19 18 18 18 18 18 19 18 16 14 13
3 3 2 3 3 3 3 1 3 4 5 2 4 3 4 4 4 4 3 1 0 2 3 2 2 4 5 6 5 6 5 4 3 3 3 3 3 2 2 4 6 8 10 12 13 13 12 13 14 11 8 9 10 11 12 12 12 12 13 12 11 11 10 10 10 9 7 5 6 8 9 9 9 10 12 12 12 14 17 18 18 19 18 15 12 12
3 4 4 3 3 3 4 5 5 4 3 3 2 4 5 5 3 4 4 3 2 3 3 3 3 3 4 6 7 6 5 4 4 3 3 2 1 2 2 4 6 8 10 11 12 14 15 15 14 14 13 13 13 12 12 12 12 11 10 10 12 13 14 15 14 13 12 11 9 8 8 8 7 5 4 6 8 12 16 17 17 17 17 16 15 14
2 3 3 2 2 3 3 3 3 3 3 2 2 4 4 3 3 4 4 3 3 4 3 3 5 4 5 7 6 5 4 5 5 4 2 2 2 3 3 5 7 9 10 11 11 12 14 15 13 12 14 13 11 12 12 11 11 10 9 10 13 14 15 16 17 16 16 16 15 13 12 12 12 11 9 8 9 12 14 16 17 18 18 19 19 17
1 2 2 2 2 2 1 3 3 3 3 3 3 3 2 1 1 2 4 3 4 4 4 4 5 6 6 6 6 6 5 6 6 4 3 3 3 3 4 5 7 9 10 11 12 13 15 15 13 13 14 13 12 12 13 11 11 10 11 12 13 13 14 16 18 18 17 17 16 15 15 16 16 15 14 14 14 16 16 17 18 18 18 19 19 17
2 4 2 1 3 3 3 6 5 4 5 5 3 3 2 2 1 0 2 3 4 4 4 4 6 7 6 5 6 7 6 5 6 6 4 3 3 3 4 5 6 8 11 13 14 16 17 16 16 16 16 15 13 14 14 13 13 12 13 14 13 12 14 16 17 18 18 18 18 18 17 17 17 17 17 18 19 20 20 20 20 19 19 18 17 17
3 4 2 2 1 1 4 5 3 4 6 6 5 5 4 4 3 2 2 3 5 6 5 5 5 5 6 6 6 6 6 5 5 6 5 3 3 3 5 6 7 9 11 13 15 16 17 16 16 16 16 15 14 14 14 14 13 13 15 15 14 14 16 17 16 17 18 19 20 20 19 19 18 19 19 20 21 22 22 20 19 19 18 16 15 15
4 3 2 3 3 2 4 5 4 2 3 5 5 6 6 6 5 4 4 4 5 6 7 6 4 3 5 7 7 7 6 5 4 5 5 3 3 5 6 8 9 9 10 12 14 15 16 16 15 15 16 15 15 15 14 14 13 14 15 15 14 16 18 18 17 17 17 19 20 20 19 19 19 19 20 20 21 22 22 20 18 18 17 16 15 14
5 6 6 5 4 5 7 7 6 5 3 4 4 4 5 6 7 6 6 6 6 7 8 8 7 5 5 5 6 7 7 5 6 7 5 4 5 8 9 9 10 10 10 11 12 13 15 15 16 16 17 17 18 18 16 15 14 14 14 13 14 16 17 18 18 17 17 18 19 18 18 18 19 19 21 21 22 23 24 23 22 20 19 19 18 18
Wind_Direction
84 67 279 230 233 229 207 191 190 194 128 105 115 144 195 189 226 248 235 282 274 106 279 235 230 284 290 301 323 248 186 184 176 137 142 242 149 159 157 147 159 163 161 162 168 174 179 185 188 187 180 175 177 185 185 179 178 182 184 187 186 185 185 182 178 174 174 175 178 185 188 188 188 187 188 189 190 190 191 193 195 196 192 190 189 188
60 94 249 229 223 224 203 191 190 188 168 135 148 173 243 182 210 248 189 251 327 116 272 280 283 300 313 337 351 22 140 156 152 126 93 286 221 195 162 153 157 145 120 140 155 169 177 182 185 185 179 173 175 181 185 181 180 184 186 189 186 181 181 182 180 177 179 182 182 184 187 187 187 187 188 189 187 188 192 195 197 198 194 193 192 192
19 254 254 246 212 189 175 164 159 179 193 163 142 162 272 237 205 262 236 350 30 110 269 288 223 285 308 351 26 42 90 127 136 134 135 259 246 220 172 158 151 136 133 153 157 168 178 181 182 184 181 176 178 182 185 184 182 185 188 191 187 180 180 182 182 181 181 182 183 185 186 185 186 188 188 188 186 188 194 196 197 197 195 195 196 196
341 250 249 240 160 154 171 153 140 155 203 165 138 142 256 232 176 233 261 10 38 47 227 160 132 291 312 23 53 38 67 102 123 158 215 246 238 232 193 167 154 153 160 167 172 174 178 181 182 186 185 178 177 181 184 184 183 185 190 193 189 183 182 183 183 181 178 179 182 186 188 187 188 189 188 189 191 195 198 198 198 196 195 197 199 200
251 256 239 150 142 150 151 141 141 156 269 274 181 188 227 207 170 186 182 114 23 350 139 106 39 318 311 78 91 18 21 107 137 193 240 240 225 239 221 183 165 166 171 172 177 180 179 182 185 189 190 182 178 182 186 187 186 187 191 194 191 187 186 185 183 180 177 178 180 183 184 187 189 189 190 194 198 201 202 202 200 196 197 199 200 202
259 265 248 140 148 126 127 184 184 167 217 307 234 215 211 166 146 130 124 95 30 342 318 80 47 302 310 124 171 177 232 187 160 192 219 219 204 200 209 200 180 175 181 179 178 178 181 185 185 188 192 188 184 187 191 191 190 189 193 194 192 189 187 187 186 181 179 179 180 181 181 183 183 185 193 198 199 200 201 201 199 197 199 202 203 205
264 295 37 110 133 106 105 253 224 163 135 305 254 214 179 140 142 138 121 96 58 265 293 66 123 274 313 274 203 174 203 220 198 199 213 209 197 194 202 203 189 185 190 187 181 178 181 184 184 187 192 193 192 192 192 192 191 191 193 193 192 191 188 188 189 186 184 184 185 187 187 187 187 189 194 198 199 198 198 198 198 199 202 205 206 207
256 336 25 57 78 89 97 269 216 155 128 254 281 138 137 133 136 132 109 93 163 240 319 20 106 260 301 270 224 172 185 225 234 229 220 209 206 200 201 203 199 195 190 183 183 184 185 187 188 189 192 196 197 192 189 191 193 193 194 194 194 193 190 188 190 189 189 189 189 190 191 192 193 194 193 194 195 197 198 199 199 200 203 206 209 210
241 325 28 59 45 60 208 223 183 141 103 292 357 89 111 113 115 115 97 90 81 47 327 309 75 41 273 281 302 163 182 222 234 232 224 210 208 203 198 202 204 203 196 189 187 186 188 192 194 193 192 196 198 193 191 193 195 195 195 193 194 196 194 191 191 193 193 193 192 192 193 194 195 195 192 191 194 197 200 202 202 203 205 207 211 212
248 209 176 124 66 230 236 220 165 145 118 155 96 87 85 84 92 87 85 97 49 39 283 265 162 103 275 278 36 127 193 224 228 228 226 212 207 205 203 203 203 203 199 197 195 191 192 195 196 194 192 195 198 197 195 194 195 195 195 194 195 198 197 195 194 196 198 198 197 197 196 195 194 195 198 201 204 206 208 208 206 206 206 208 210 211
287 264 178 160 190 199 182 81 87 146 139 130 96 81 76 60 57 53 56 84 54 343 274 258 180 125 307 274 182 154 220 238 226 224 224 212 206 208 208 205 201 201 198 195 197 194 193 194 194 192 192 194 197 198 195 194 195 196 196 195 196 198 199 198 197 198 200 202 203 202 201 199 199 201 206 210 211 212 213 212 211 211 210 208 209 212
334 4 266 263 243 155 107 67 26 27 93 101 90 89 79 22 15 28 2 33 70 264 277 276 153 117 298 262 237 248 283 285 232 220 219 210 205 206 208 207 201 198 197 192 192 189 181 182 186 190 193 193 192 194 195 195 196 196 197 197 197 198 199 200 200 200 201 204 206 207 207 207 207 209 211 211 211 212 212 214 214 214 212 211 210 213
345 12 318 321 327 101 91 70 26 7 26 63 93 88 71 24 12 14 330 347 194 249 279 206 136 118 252 249 278 281 285 293 253 229 221 210 206 204 202 207 204 198 197 192 188 184 174 174 183 188 192 192 191 193 195 196 196 197 198 198 198 199 200 200 201 202 203 205 208 210 212 215 216 217 216 213 211 212 213 215 216 215 214 212 212 214
339 318 345 360 359 34 87 103 72 335 52 114 133 112 103 102 67 329 272 296 265 268 299 247 160 274 279 271 322 316 307 309 289 254 226 209 207 203 199 202 203 198 196 194 189 183 180 180 184 188 191 192 193 194 195 195 196 197 198 199 201 202 202 201 203 204 206 208 210 212 215 220 222 220 218 215 214 215 216 216 217 219 219 217 217 216
56 326 342 4 330 358 55 139 159 148 142 189 189 133 126 146 140 198 219 204 231 258 331 353 202 206 217 239 300 302 297 330 347 319 248 211 208 202 203 205 203 201 197 193 192 188 185 185 185 189 192 193 195 195 194 195 197 198 198 200 202 204 204 204 205 207 209 210 212 213 217 224 226 223 220 219 221 222 220 218 220 223 226 225 223 219
83 276 286 293 279 15 37 192 140 107 108 229 183 99 85 179 147 139 186 177 176 171 337 321 234 213 212 260 296 320 330 16 22 12 13 7 231 185 197 205 198 205 202 194 195 193 188 186 186 189 192 194 196 195 195 196 197 199 200 201 203 205 206 206 207 208 210 212 213 215 219 226 228 226 224 223 224 226 225 223 223 225 228 229 227 222
86 258 281 322 336 43 65 359 82 104 158 249 82 105 241 175 123 109 195 184 88 129 265 284 276 304 336 277 304 350 4 17 21 15 13 3 360 163 187 197 191 199 201 196 197 195 190 187 188 191 192 193 194 195 197 198 198 200 201 202 203 204 205 207 208 210 211 212 214 217 220 226 228 228 227 226 225 226 227 225 226 227 228 230 231 227
129 204 289 347 7 314 319 82 30 52 124 97 78 214 214 116 94 107 135 11 43 203 277 329 279 299 355 248 312 358 5 2 7 6 0 355 2 109 200 208 204 200 195 198 199 195 193 190 191 193 194 195 196 197 199 200 200 201 202 203 203 203 204 206 208 209 210 211 213 217 220 223 228 230 228 226 226 227 228 227 228 230 233 235 235 231
108 100 293 282 221 295 336 60 11 341 42 92 155 199 131 114 81 22 108 130 67 233 287 320 302 269 195 229 309 348 351 345 346 350 353 350 348 321 287 296 246 203 189 203 204 195 193 193 195 196 196 198 199 200 201 200 200 200 202 205 206 206 206 206 207 208 209 211 213 216 220 222 225 228 227 225 225 227 227 228 230 234 237 240 239 234
88 111 283 280 246 321 356 48 46 316 339 23 42 14 36 129 155 39 122 160 159 184 261 315 332 282 221 220 243 278 302 329 333 338 341 324 314 297 264 233 222 203 197 204 204 203 199 195 198 199 198 200 200 201 201 199 200 201 202 204 206 208 208 206 207 207 209 211 212 214 217 219 221 223 224 224 224 226 228 231 234 237 239 241 239 234
65 97 224 294 331 30 18 29 135 237 295 5 25 14 355 4 92 108 51 100 131 147 176 281 313 273 251 211 184 230 270 298 309 313 310 300 299 296 280 239 202 195 206 206 198 205 207 200 201 202 202 202 201 202 202 200 201 202 202 203 205 207 207 207 207 208 209 211 212 214 215 217 218 219 220 222 225 229 232 235 237 238 239 240 239 236
104 106 130 324 355 27 259 266 252 222 192 152 121 108 172 288 84 106 328 305 108 123 155 160 245 269 265 215 172 212 247 284 303 289 281 292 296 292 294 277 220 187 194 207 191 185 190 199 205 205 206 207 204 201 201 202 203 202 202 204 205 206 207 208 208 208 210 211 213 214 216 218 219 219 220 223 226 230 234 236 237 237 238 239 240 239
140 103 90 55 329 268 261 270 270 229 152 125 106 108 132 114 99 121 196 257 123 79 120 123 187 267 274 340 101 129 302 319 310 282 272 284 292 292 304 309 287 242 206 188 166 148 120 112 134 154 179 252 249 226 211 204 202 204 206 205 205 206 208 210 210 209 210 211 214 216 217 219 220 221 222 224 226 229 232 235 236 236 236 238 240 241
95 80 73 359 312 308 298 306 333 15 64 74 17 49 99 65 94 143 175 187 152 164 140 96 253 262 291 2 60 58 22 351 324 306 287 284 296 305 309 311 303 283 252 193 161 139 114 106 116 145 172 188 248 280 265 232 211 206 207 207 206 208 210 210 211 210 210 210 213 216 217 219 221 223 224 225 226 228 230 232 234 234 235 238 241 242
114 104 94 65 359 346 346 342 339 344 36 81 307 327 48 65 61 91 142 87 154 215 160 139 230 252 283 6 45 44 28 16 352 326 301 291 298 308 307 307 301 296 294 260 195 156 149 143 137 156 175 180 185 207 240 253 237 216 209 208 208 209 210 210 210 210 210 211 212 214 216 218 221 223 224 225 227 228 230 231 233 234 236 238 241 243
117 136 119 109 126 171 283 282 269 262 18 63 297 317 4 73 70 57 115 81 260 242 159 154 222 263 288 354 32 33 30 15 342 319 308 300 301 304 304 304 298 291 296 288 264 200 183 182 166 163 173 181 189 197 204 219 233 228 217 211 210 210 209 209 209 210 210 210 210 212 214 217 219 222 224 225 227 228 231 232 233 235 238 239 241 243
92 125 145 138 159 179 192 219 219 161 130 149 203 284 308 58 82 97 96 129 196 200 239 221 211 256 283 294 347 349 353 326 299 304 306 299 300 305 306 304 301 289 285 290 284 261 233 213 187 171 173 183 196 201 200 203 211 218 220 217 213 211 209 207 208 208 209 211 211 212 213 215 218 221 223 225 226 228 231 233 235 237 239 241 242 244
97 160 182 150 183 203 188 209 222 142 155 185 175 220 269 134 97 104 150 215 165 123 278 258 198 211 259 249 228 248 272 276 275 284 290 292 298 304 306 303 303 305 309 307 296 278 264 247 220 188 181 189 198 203 202 202 203 204 211 215 213 210 209 207 207 207 208 210 211 212 214 216 219 221 223 225 227 229 231 233 236 238 240 241 242 245
111 169 190 162 225 244 196 198 207 147 144 172 174 205 227 176 160 180 214 207 158 166 247 247 205 228 251 240 218 225 255 269 269 269 276 285 290 294 305 310 310 317 323 318 308 298 281 270 262 217 198 198 199 200 200 201 200 197 199 204 207 208 208 207 207 207 208 209 212 215 217 216 218 221 223 225 226 228 231 233 236 238 241 242 244 248
117 167 185 138 305 297 277 208 192 155 123 191 216 220 220 204 198 210 223 202 180 213 242 236 244 259 252 219 209 211 243 269 277 275 273 280 290 303 315 316 316 319 321 317 313 313 306 290 289 264 211 201 199 199 200 199 197 195 193 194 197 200 202 204 204 205 206 208 212 216 220 220 219 219 221 224 227 229 230 232 234 237 240 243 246 249
85 154 158 93 43 308 320 49 122 141 145 231 276 265 244 258 260 245 236 196 190 242 254 228 281 280 268 212 199 230 271 276 278 273 273 288 307 319 320 318 322 324 324 325 322 320 316 311 306 292 239 213 206 203 203 202 198 195 192 190 192 195 197 198 199 200 203 204 208 213 219 225 225 224 223 223 226 229 230 232 234 236 239 243 246 247
86 103 56 73 78 286 317 45 94 103 95 347 297 280 247 232 234 224 216 207 195 197 214 256 281 272 269 186 158 267 270 261 266 275 296 322 324 324 325 329 333 328 324 326 326 323 316 312 313 305 287 256 229 215 211 207 201 195 192 191 194 195 195 195 196 196 197 200 208 214 216 219 224 228 229 227 226 229 231 233 235 236 238 241 243 245
124 129 135 115 135 261 291 16 117 74 42 339 280 259 221 200 207 219 243 236 205 162 156 210 238 239 224 169 186 240 253 254 268 290 318 324 325 330 331 335 334 324 319 319 319 320 314 306 306 300 295 286 256 234 223 213 204 200 198 195 197 195 190 190 191 190 193 201 209 214 215 215 214 219 227 230 229 230 231 233 235 237 239 240 242 243
134 134 155 151 143 247 283 354 91 62 8 253 248 223 199 206 206 212 235 228 208 181 160 182 209 215 196 189 201 222 234 247 285 312 290 287 311 324 326 333 332 323 323 327 323 321 312 299 294 288 284 278 260 246 235 223 212 206 202 198 197 194 187 187 190 191 197 207 211 213 215 214 212 214 219 225 228 229 230 232 235 238 240 241 241 241
135 124 131 125 121 190 309 46 75 220 233 244 269 254 218 199 176 203 261 246 216 220 212 187 209 212 205 209 215 225 240 271 325 304 291 296 297 313 327 332 332 328 328 331 332 329 320 308 298 292 292 282 259 250 239 227 218 208 200 198 196 193 190 192 196 199 202 207 210 213 216 218 218 216 214 217 224 229 230 232 235 238 240 241 241 241
143 136 128 118 128 153 71 90 155 239 254 277 300 281 224 136 110 71 305 276 225 201 195 205 222 213 206 213 205 203 271 333 3 292 329 347 335 337 346 337 335 332 325 327 332 330 326 321 313 298 295 288 241 224 218 214 207 192 187 193 193 190 191 195 201 207 206 206 210 214 218 222 222 217 214 216 222 226 229 232 234 237 240 241 242 244
136 146 141 143 165 155 143 179 238 296 306 294 284 255 187 151 143 144 257 274 243 193 178 176 187 198 192 166 153 100 14 17 10 312 330 358 357 1 1 354 354 342 324 330 339 334 330 328 321 300 287 276 231 198 178 175 181 177 173 178 182 182 186 193 200 206 206 208 212 214 218 222 221 218 219 223 223 224 227 230 231 234 237 239 241 243
112 146 154 161 184 120 106 127 310 346 289 257 251 252 214 176 172 146 133 285 268 204 174 159 162 180 168 145 141 56 36 44 303 280 272 326 355 6 8 7 10 349 325 327 340 336 330 327 322 308 285 267 266 204 156 156 161 164 159 158 162 167 173 182 193 201 206 210 212 212 214 218 219 218 221 225 226 224 224 226 227 229 231 234 235 232
69 64 105 117 133 113 117 141 194 202 239 246 240 255 259 194 169 115 64 309 275 206 168 154 159 174 169 159 155 110 88 177 256 267 263 324 16 26 22 8 7 347 323 323 340 333 320 323 325 315 263 210 36 69 129 144 149 150 148 148 152 157 162 171 183 196 207 213 212 211 214 217 219 221 222 226 229 228 226 225 225 225 225 223 222 222
59 40 70 106 137 160 139 154 221 224 245 241 227 246 257 186 131 90 27 279 257 190 164 156 164 179 173 159 155 153 161 183 226 260 282 46 41 29 28 11 354 336 319 323 336 324 310 324 337 342 95 73 74 101 125 141 149 148 145 145 149 154 160 171 181 192 206 213 212 212 215 219 223 227 227 230 233 234 232 230 226 222 216 210 210 219
66 50 82 126 143 152 152 182 263 255 246 234 223 233 231 144 92 96 220 243 220 164 173 168 167 178 171 159 168 193 200 191 208 256 337 48 42 19 17 3 347 338 326 326 333 323 314 329 338 336 91 73 71 96 116 130 137 135 130 131 136 144 154 167 178 186 196 206 210 211 215 219 224 228 232 234 234 234 233 228 220 214 208 199 197 205
123 89 97 123 122 134 152 158 296 283 249 196 170 197 181 129 133 208 220 233 177 162 177 178 171 174 170 167 176 192 198 190 180 124 39 49 51 26 6 353 351 352 345 342 344 339 335 349 359 14 92 84 77 89 106 113 112 110 108 107 113 128 139 143 156 173 183 193 204 211 215 218 219 224 230 232 229 227 226 219 210 203 197 189 188 195
169 152 168 177 154 118 78 66 46 274 244 159 122 91 302 174 204 218 204 4 222 166 153 158 179 172 165 164 169 159 141 123 108 93 66 50 45 21 353 357 6 3 357 355 356 356 360 19 35 46 86 88 76 83 97 99 94 93 93 92 97 107 111 113 125 146 165 186 204 215 222 222 219 222 226 225 220 217 212 202 193 188 185 182 185 193
173 149 175 222 185 126 110 172 203 215 233 205 138 161 218 217 205 188 153 114 263 165 147 160 193 180 163 153 152 150 139 126 117 107 85 63 45 5 354 11 12 8 4 2 5 13 26 40 44 46 65 89 91 89 92 95 95 92 91 96 102 103 102 110 124 132 137 154 186 206 213 213 210 215 220 219 209 194 183 177 177 182 186 186 186 191
212 180 172 186 188 166 175 210 228 223 234 241 180 189 225 240 217 176 145 130 172 193 176 164 171 172 153 143 143 143 137 131 124 112 99 83 54 36 36 27 22 21 16 13 19 30 44 53 46 38 54 87 108 108 99 99 97 89 90 103 111 108 108 113 117 115 109 107 114 132 152 157 149 144 172 196 185 166 159 160 164 171 177 176 178 184
250 188 148 134 197 233 218 211 235 251 249 244 220 211 218 223 212 179 138 128 183 196 180 164 162 153 142 144 145 139 138 135 123 114 121 116 80 59 52 39 33 33 29 26 31 39 53 63 59 48 53 69 90 101 105 111 108 100 101 109 108 106 107 108 106 102 100 100 104 113 123 126 120 111 114 134 144 140 142 146 149 155 161 164 170 177
281 142 95 89 139 171 241 240 234 240 245 246 245 236 194 144 203 188 159 162 179 173 163 160 149 139 142 152 149 142 144 139 127 123 119 102 84 68 61 49 37 36 39 41 45 51 58 61 57 51 48 45 53 74 90 98 99 101 107 108 106 108 110 109 106 104 102 102 104 108 110 107 106 107 109 113 116 116 118 124 129 134 141 146 153 158
180 134 106 124 154 162 225 249 255 264 263 249 226 210 173 130 124 172 152 156 149 140 148 152 143 141 150 159 152 144 143 136 130 132 128 111 107 91 69 59 49 49 53 56 60 63 64 61 58 55 51 44 47 64 76 79 79 90 101 103 104 109 108 106 105 105 104 103 103 103 101 100 103 107 108 105 104 103 104 107 112 115 118 125 134 141
150 143 152 143 131 288 274 262 270 297 291 275 239 213 198 170 152 124 111 130 132 130 137 148 151 153 155 157 154 142 136 135 133 130 127 123 122 105 86 76 71 67 65 65 68 70 69 67 67 66 60 57 61 70 78 80 80 88 100 107 114 114 107 101 101 101 102 102 102 101 102 103 105 106 103 100 97 94 92 95 100 103 104 107 116 126
137 158 165 115 104 277 255 222 187 177 257 268 249 216 192 167 148 136 136 145 147 149 151 150 144 136 143 157 163 146 134 141 144 131 127 129 118 106 104 101 94 87 82 80 78 76 72 70 71 72 71 72 76 79 79 80 81 85 95 109 119 118 112 108 102 97 97 99 100 102 104 105 104 104 103 101 100 97 93 92 93 97 99 100 104 112
161 173 173 154 169 223 229 208 180 156 178 242 243 209 175 156 149 155 167 169 167 167 163 155 148 143 148 166 170 151 137 143 148 134 120 116 115 107 107 110 107 100 98 96 87 75 70 71 73 74 75 76 80 82 81 80 81 85 94 108 116 115 115 113 105 96 93 97 101 104 107 107 106 105 105 104 105 105 103 99 96 96 97 97 100 103